| time (UTC) | temp C | wind direction | speed KPH | gust KPH | rain 1hr cm | rain 24hr cm | rain mn cm | humidity % | barometer mb |
| 20260503072016 | 3 | 135 | 4.8 | 12.9 | 0.00 | 0.00 | 0.00 | 83 | 1008.4 |
| 20260503071016 | 3 | 135 | 4.8 | 11.3 | 0.00 | 0.00 | 0.00 | 84 | 1008.4 |
| 20260503055035 | 3 | 158 | 1.6 | 6.4 | 0.00 | 0.00 | 0.00 | 94 | 1008.4 |
| 20260503054015 | 2 | 135 | 3.2 | 4.8 | 0.00 | 0.00 | 0.00 | 94 | 1008.4 |
| 20260503053015 | 1 | 113 | 1.6 | 3.2 | 0.00 | 0.00 | 0.00 | 95 | 1008.3 |
| 20260503052015 | 1 | 0.0 | 1.6 | 0.00 | 0.00 | 0.00 | 95 | 1008.4 | |
| 20260503051015 | 1 | 135 | 1.6 | 4.8 | 0.00 | 0.00 | 0.00 | 95 | 1008.4 |
| 20260503050015 | 1 | 158 | 1.6 | 6.4 | 0.00 | 0.00 | 0.00 | 95 | 1008.4 |
| 20260503045015 | 1 | 158 | 1.6 | 6.4 | 0.00 | 0.00 | 0.00 | 96 | 1008.5 |
| 20260503044017 | 1 | 0.0 | 4.8 | 0.00 | 0.00 | 0.00 | 96 | 1008.5 | |
| 20260503043017 | 1 | 0.0 | 3.2 | 0.00 | 0.00 | 0.00 | 96 | 1008.5 | |
| 20260503042015 | 0 | 158 | 3.2 | 8.0 | 0.00 | 0.00 | 0.00 | 96 | 1008.5 |
| 20260503041017 | 0 | 0.0 | 1.6 | 0.00 | 0.00 | 0.00 | 96 | 1008.6 | |
| 20260503040017 | 0 | 0.0 | 1.6 | 0.00 | 0.00 | 0.00 | 96 | 1008.5 | |
| 20260503035017 | 0 | 0.0 | 0.0 | 0.00 | 0.00 | 0.00 | 96 | 1008.4 | |
| 20260503034017 | 0 | 0.0 | 0.0 | 0.00 | 0.00 | 0.00 | 96 | 1008.4 | |
| 20260503033017 | 0 | 0.0 | 0.0 | 0.00 | 0.00 | 0.00 | 96 | 1008.5 | |
| 20260503032037 | 0 | 0.0 | 0.0 | 0.00 | 0.00 | 0.00 | 96 | 1008.5 | |
| 20260503031017 | 0 | 0.0 | 1.6 | 0.00 | 0.00 | 0.00 | 95 | 1008.6 | |
| 20260503030017 | 0 | 0.0 | 1.6 | 0.00 | 0.00 | 0.00 | 95 | 1008.7 | |
| 20260503025017 | 0 | 45 | 1.6 | 6.4 | 0.00 | 0.00 | 0.00 | 95 | 1009.0 |
| 20260503024017 | 0 | 293 | 4.8 | 14.5 | 0.00 | 0.00 | 0.00 | 96 | 1009.1 |
| 20260503023017 | 0 | 225 | 3.2 | 9.7 | 0.00 | 0.00 | 0.00 | 95 | 1009.0 |
| 20260503021017 | 0 | 270 | 3.2 | 12.9 | 0.00 | 0.00 | 0.00 | 96 | 1008.9 |
| 20260503020017 | 0 | 0.0 | 1.6 | 0.00 | 0.00 | 0.00 | 95 | 1008.7 | |
| 20260503015017 | 0 | 0.0 | 0.0 | 0.00 | 0.00 | 0.00 | 95 | 1008.7 | |
| 20260503014017 | 0 | 0.0 | 0.0 | 0.00 | 0.00 | 0.00 | 95 | 1008.7 | |
| 20260503013017 | 0 | 0.0 | 0.0 | 0.00 | 0.00 | 0.00 | 95 | 1008.8 | |
| 20260503012017 | 0 | 0.0 | 1.6 | 0.00 | 0.00 | 0.00 | 95 | 1008.8 | |
| 20260503011017 | 0 | 0.0 | 0.0 | 0.00 | 0.00 | 0.00 | 94 | 1009.0 | |
| 20260503010017 | 0 | 45 | 1.6 | 4.8 | 0.00 | 0.00 | 0.00 | 94 | 1009.2 |
| 20260503005017 | 0 | 293 | 3.2 | 9.7 | 0.00 | 0.00 | 0.00 | 94 | 1009.2 |
| 20260503004057 | 1 | 293 | 3.2 | 12.9 | 0.00 | 0.00 | 0.00 | 94 | 1009.1 |
| 20260503003017 | 1 | 0.0 | 1.6 | 0.00 | 0.00 | 0.00 | 94 | 1008.9 | |
| 20260503002016 | 1 | 0.0 | 0.0 | 0.00 | 0.00 | 0.00 | 94 | 1009.0 | |
| 20260503001037 | 1 | 0.0 | 0.0 | 0.00 | 0.00 | 0.00 | 93 | 1009.1 | |
| 20260503000017 | 1 | 0.0 | 1.6 | 0.00 | 0.00 | 0.00 | 93 | 1009.1 | |
| 20260502235016 | 1 | 0.0 | 3.2 | 0.00 | 0.00 | 0.00 | 94 | 1009.2 | |
| 20260502234016 | 1 | 0.0 | 3.2 | 0.00 | 0.00 | 0.00 | 93 | 1009.3 | |
| 20260502233017 | 1 | 0.0 | 1.6 | 0.00 | 0.00 | 0.00 | 93 | 1009.3 | |
| 20260502232016 | 1 | 293 | 1.6 | 9.7 | 0.00 | 0.00 | 0.00 | 93 | 1009.3 |
| 20260502231017 | 1 | 0.0 | 0.0 | 0.00 | 0.00 | 0.00 | 92 | 1009.0 | |
| 20260502230016 | 1 | 0.0 | 0.0 | 0.00 | 0.00 | 0.00 | 92 | 1008.9 | |
| 20260502225016 | 1 | 0.0 | 1.6 | 0.00 | 0.00 | 0.00 | 92 | 1009.1 | |
| 20260502224017 | 1 | 315 | 1.6 | 4.8 | 0.00 | 0.00 | 0.00 | 92 | 1009.1 |
| 20260502223017 | 1 | 180 | 1.6 | 8.0 | 0.00 | 0.00 | 0.00 | 92 | 1009.3 |
| 20260502222016 | 1 | 225 | 3.2 | 8.0 | 0.00 | 0.00 | 0.00 | 91 | 1009.2 |
| 20260502221017 | 1 | 293 | 3.2 | 17.7 | 0.00 | 0.00 | 0.00 | 88 | 1009.3 |
| 20260502220016 | 2 | 293 | 4.8 | 14.5 | 0.00 | 0.00 | 0.00 | 85 | 1009.2 |
| 20260502215017 | 2 | 23 | 1.6 | 8.0 | 0.00 | 0.00 | 0.00 | 84 | 1009.0 |
| 20260502214017 | 2 | 23 | 3.2 | 11.3 | 0.00 | 0.00 | 0.00 | 86 | 1009.1 |
| 20260502213037 | 2 | 0.0 | 3.2 | 0.00 | 0.00 | 0.00 | 88 | 1009.0 | |
| 20260502212017 | 2 | 0.0 | 1.6 | 0.00 | 0.00 | 0.00 | 88 | 1009.0 | |
| 20260502211017 | 2 | 0 | 1.6 | 4.8 | 0.00 | 0.00 | 0.00 | 88 | 1009.0 |
| 20260502210017 | 2 | 0.0 | 3.2 | 0.00 | 0.00 | 0.00 | 88 | 1009.0 | |
| 20260502205017 | 2 | 23 | 1.6 | 9.7 | 0.00 | 0.00 | 0.00 | 89 | 1009.0 |
| 20260502204017 | 2 | 23 | 3.2 | 11.3 | 0.00 | 0.00 | 0.00 | 88 | 1009.0 |
| 20260502203017 | 2 | 0 | 4.8 | 9.7 | 0.00 | 0.00 | 0.00 | 89 | 1008.8 |
| 20260502202017 | 2 | 23 | 4.8 | 17.7 | 0.00 | 0.00 | 0.00 | 90 | 1008.8 |
| 20260502201017 | 2 | 23 | 4.8 | 11.3 | 0.00 | 0.00 | 0.00 | 91 | 1008.7 |
| 20260502200017 | 2 | 23 | 3.2 | 9.7 | 0.00 | 0.00 | 0.00 | 91 | 1008.6 |
| 20260502195037 | 3 | 23 | 3.2 | 9.7 | 0.00 | 0.00 | 0.00 | 90 | 1008.5 |
| 20260502194016 | 3 | 23 | 4.8 | 17.7 | 0.00 | 0.00 | 0.00 | 89 | 1008.4 |
| 20260502193016 | 3 | 45 | 6.4 | 16.1 | 0.00 | 0.00 | 0.00 | 89 | 1008.3 |
| 20260502192037 | 3 | 293 | 6.4 | 19.3 | 0.00 | 0.00 | 0.00 | 88 | 1008.2 |
| 20260502191016 | 3 | 45 | 4.8 | 16.1 | 0.00 | 0.00 | 0.00 | 88 | 1008.1 |
| 20260502190016 | 3 | 23 | 4.8 | 14.5 | 0.00 | 0.00 | 0.00 | 87 | 1007.9 |
| 20260502185016 | 3 | 293 | 6.4 | 22.5 | 0.00 | 0.00 | 0.00 | 87 | 1007.7 |
| 20260502184017 | 3 | 293 | 8.0 | 29.0 | 0.00 | 0.00 | 0.00 | 89 | 1007.6 |
| 20260502183016 | 3 | 225 | 3.2 | 12.9 | 0.00 | 0.00 | 0.00 | 91 | 1007.5 |
| 20260502182016 | 3 | 180 | 4.8 | 14.5 | 0.00 | 0.00 | 0.00 | 91 | 1007.5 |
| 20260502181017 | 3 | 248 | 4.8 | 17.7 | 0.00 | 0.00 | 0.00 | 90 | 1007.4 |
| 20260502164016 | 5 | 248 | 4.8 | 14.5 | 0.00 | 0.00 | 0.00 | 77 | 1007.9 |
| 20260502163016 | 5 | 248 | 4.8 | 19.3 | 0.00 | 0.00 | 0.00 | 77 | 1007.9 |
| 20260502162016 | 5 | 248 | 4.8 | 17.7 | 0.00 | 0.00 | 0.00 | 75 | 1007.9 |
| 20260502161016 | 5 | 270 | 3.2 | 16.1 | 0.00 | 0.00 | 0.00 | 78 | 1008.0 |
| 20260502152016 | 5 | 293 | 4.8 | 12.9 | 0.00 | 0.00 | 0.00 | 81 | 1008.1 |
| 20260502151036 | 5 | 248 | 1.6 | 9.7 | 0.00 | 0.00 | 0.00 | 84 | 1008.1 |
| 20260502123016 | 7 | 158 | 3.2 | 6.4 | 0.00 | 0.00 | 0.00 | 59 | 1007.8 |
| 20260502122016 | 7 | 293 | 4.8 | 14.5 | 0.00 | 0.00 | 0.00 | 61 | 1007.7 |
| 20260502121016 | 6 | 158 | 4.8 | 14.5 | 0.00 | 0.00 | 0.00 | 68 | 1007.7 |
| 20260502115036 | 6 | 270 | 6.4 | 17.7 | 0.00 | 0.00 | 0.00 | 71 | 1007.7 |
| 20260502114036 | 6 | 293 | 3.2 | 12.9 | 0.00 | 0.00 | 0.00 | 69 | 1007.8 |
| 20260502113036 | 6 | 225 | 4.8 | 17.7 | 0.00 | 0.00 | 0.00 | 67 | 1007.6 |
| 20260502112016 | 7 | 293 | 4.8 | 11.3 | 0.00 | 0.00 | 0.00 | 64 | 1007.7 |
| 20260502111016 | 7 | 248 | 6.4 | 16.1 | 0.00 | 0.00 | 0.00 | 61 | 1007.5 |
| 20260502110015 | 7 | 113 | 8.0 | 20.9 | 0.00 | 0.00 | 0.00 | 61 | 1007.5 |
| 20260502105015 | 7 | 293 | 4.8 | 12.9 | 0.00 | 0.00 | 0.00 | 63 | 1007.5 |
| 20260502104015 | 8 | 293 | 4.8 | 12.9 | 0.00 | 0.00 | 0.00 | 62 | 1007.4 |
| 20260502103036 | 7 | 293 | 8.0 | 17.7 | 0.00 | 0.00 | 0.00 | 62 | 1007.5 |
| 20260502102015 | 8 | 270 | 4.8 | 20.9 | 0.00 | 0.00 | 0.00 | 66 | 1007.5 |
| 20260502101016 | 7 | 293 | 6.4 | 12.9 | 0.00 | 0.00 | 0.00 | 63 | 1007.4 |
| 20260502091016 | 6 | 248 | 6.4 | 14.5 | 0.00 | 0.00 | 0.00 | 78 | 1007.1 |